Regional Weather Roundup
Issued by NWS Kansas City/Pleasant Hill, MO

Home | Current Version | Previous Version | Text Only | Print | Product List | Glossary On
Versions: 1 2 3 4 5 6 7 8 9 10 11 12 13 14 15 16 17 18 19 20 21 22 23 24 25 26 27
000
ASUS43 KEAX 111710
RWREAX

WEATHER ROUNDUP FOR EASTERN KANSAS AND NORTHWEST MISSOURI
NATIONAL WEATHER SERVICE KANSAS CITY/PLEASANT HILL MO
1100 AM CST MON DEC 11 2017

KSZ040-057-103>105-MOZ028-029-037-043-111800-
...KANSAS CITY METROPOLITAN AREA...

CITY           SKY/WX    TMP DP  RH WIND       PRES   REMARKS
K.C. INTL      PTSUNNY   53  21  28 NW21G32   29.96F
K.C. DOWNTOWN  CLOUDY    53  21  28 W14G24    29.97F
LEES SUMMIT    PTSUNNY   48  19  31 W14G21    29.98S
OLATHE - IXD   CLOUDY    47  19  33 W15       30.02S
OLATHE - OJC   CLOUDY    47  19  33 NW12      29.99F
LAWRENCE       CLOUDY    53  21  28 W18       30.01F

$$

MOZ001>008-011>017-020>025-030>033-038>040-044>046-053-054-111800-
...NORTHERN AND CENTRAL MISSOURI...

CITY           SKY/WX    TMP DP  RH WIND       PRES   REMARKS
ST. JOSEPH     SUNNY     54  23  30 NW26G38   29.96F
MOSBY          CLOUDY    50  19  29 NW14G21   29.96F
WARRENSBURG    PTSUNNY   50  19  29 W15G28    29.97R
WHITEMAN AFB   PTSUNNY   51  18  27 NW24G30   29.91R
CLINTON        MOSUNNY   52  19  28 W16G24    29.98R
SEDALIA        MOSUNNY   52  21  29 W20G29    29.95R
WARSAW         NOT AVBL
CHILLICOTHE      N/A     51  25  36 NW17G31   29.90S
KIRKSVILLE     CLOUDY    46  24  42 W20G26    29.81R

$$

MOZ041-047>049-056>058-063>065-088>090-097-111800-
...EASTERN AND SOUTHERN MISSOURI...

CITY           SKY/WX    TMP DP  RH WIND       PRES   REMARKS
ST. LOUIS INTL PTSUNNY   53  24  32 SW17      29.81F
SPIRIT OF STL  MOSUNNY   55  24  30 SW14G25   29.80F
COLUMBIA       MOSUNNY   52  20  28 W17G30    29.87S
JEFFERSON CITY SUNNY     55  21  26 W14G26    29.88F
ROLLA          SUNNY     55  23  28 SW14      29.88F
OSAGE BEACH    SUNNY     56  20  24 W10G21    29.92F
SPRINGFIELD    SUNNY     59  19  21 W16G23    30.00F
BRANSON        MOSUNNY   63  18  17 SW9G18    30.03F
JOPLIN         SUNNY     55  22  27 W15       30.06F
WEST PLAINS    SUNNY     60  20  21 W14       29.97F

$$

IAZ060-094-KSZ022-034>040-054-083-096-NEZ052-066-093-111800-
...KANSAS...SOUTHEAST NEBRASKA AND IOWA...

CITY           SKY/WX    TMP DP  RH WIND       PRES   REMARKS
TOPEKA         MOSUNNY   51  21  30 W8        30.03S
MANHATTAN      CLOUDY    56  17  21 NW8       30.07S
EMPORIA        CLOUDY    54  17  23 W12G22    30.08S
CHANUTE        CLOUDY    55  18  23 NW12      30.08S
WICHITA        MOSUNNY   56  15  20 N15       30.14S
OMAHA          CLOUDY    48  30  49 NW26G39   29.96R
LINCOLN        SUNNY     50  27  40 NW32G47   30.05R
FALLS CITY     SUNNY     53  24  32 NW31G46   29.98S
LAMONI         MOSUNNY   48  28  46 NW30G52   29.86R
DES MOINES     CLOUDY    45  30  55 NW26G39   29.80R

$$





USA.gov is the U.S. government's official web portal to all federal, state and local government web resources and services.